TimeEDT,TemperatureF,Dew PointF,Humidity,Sea Level PressureIn,VisibilityMPH,Wind Direction,Wind SpeedMPH,Gust SpeedMPH,PrecipitationIn,Events,Conditions,WindDirDegrees,DateUTC
12:53 AM,48.0,45.0,89,30.10,10.0,Calm,Calm,-,N/A,,Clear,0,2012-09-17 04:53:00
1:53 AM,46.0,45.0,96,30.10,10.0,Calm,Calm,-,N/A,,Clear,0,2012-09-17 05:53:00
2:53 AM,46.0,44.1,93,30.09,10.0,Calm,Calm,-,N/A,,Clear,0,2012-09-17 06:53:00
3:53 AM,46.0,44.1,93,30.07,9.0,Calm,Calm,-,N/A,,Clear,0,2012-09-17 07:53:00
4:53 AM,46.0,44.1,93,30.06,7.0,Calm,Calm,-,N/A,,Clear,0,2012-09-17 08:53:00
5:53 AM,45.0,43.0,93,30.07,10.0,Calm,Calm,-,N/A,,Clear,0,2012-09-17 09:53:00
6:53 AM,44.1,43.0,96,30.07,10.0,Calm,Calm,-,N/A,,Clear,0,2012-09-17 10:53:00
7:53 AM,46.0,44.1,93,30.06,7.0,Calm,Calm,-,0.01,,Clear,0,2012-09-17 11:53:00
8:53 AM,50.0,48.0,93,30.06,10.0,Calm,Calm,-,N/A,,Clear,0,2012-09-17 12:53:00
10:53 AM,64.0,48.9,58,30.04,10.0,ESE,4.6,-,N/A,,Clear,120,2012-09-17 14:53:00
11:53 AM,71.1,51.1,49,30.02,10.0,SE,5.8,-,N/A,,Clear,140,2012-09-17 15:53:00
12:53 PM,73.0,46.9,39,30.00,10.0,Calm,Calm,-,N/A,,Clear,0,2012-09-17 16:53:00
1:53 PM,75.9,46.9,36,29.97,10.0,SSE,5.8,-,N/A,,Clear,160,2012-09-17 17:53:00
2:53 PM,77.0,48.0,36,29.94,10.0,Variable,5.8,-,N/A,,Partly Cloudy,0,2012-09-17 18:53:00
3:53 PM,75.9,48.9,38,29.93,10.0,Variable,5.8,-,N/A,,Mostly Cloudy,0,2012-09-17 19:53:00
4:53 PM,75.0,51.1,43,29.91,10.0,SSW,3.5,-,N/A,,Scattered Clouds,210,2012-09-17 20:53:00
5:53 PM,73.0,52.0,48,29.89,10.0,South,3.5,-,N/A,,Mostly Cloudy,190,2012-09-17 21:53:00
6:53 PM,70.0,54.0,57,29.88,10.0,Calm,Calm,-,N/A,,Clear,0,2012-09-17 22:53:00
7:53 PM,66.0,54.0,65,29.87,10.0,SE,4.6,-,N/A,,Partly Cloudy,140,2012-09-17 23:53:00
8:53 PM,66.0,55.0,68,29.86,10.0,Calm,Calm,-,N/A,,Mostly Cloudy,0,2012-09-18 00:53:00
9:53 PM,66.9,55.9,68,29.86,10.0,SE,5.8,-,N/A,,Mostly Cloudy,140,2012-09-18 01:53:00
10:53 PM,66.9,59.0,76,29.84,10.0,SSE,4.6,-,N/A,,Overcast,160,2012-09-18 02:53:00
11:53 PM,66.0,61.0,84,29.83,10.0,Calm,Calm,-,N/A,,Overcast,0,2012-09-18 03:53:00